Location: ??????
(31.2056°N, 45.3906°E)
Time: 13:52:18
(UTC+00:00)

Cosmos 2263 Rocket - Pass Details

Date: 09 April 2020
Orbit: 823 x 848 km, 71.0° (Epoch: 05 June)

Event Time Altitude Azimuth Distance (km) Brightness Sun altitude
Exits shadow 23:52:35 27° 119° (ESE) 1,551 3.7 -33.0°
Maximum altitude 23:53:29 29° 102° (ESE) 1,508 3.8 -32.9°
Drops below altitude 10° 23:58:15 10° 45° (NE) 2,467 5.5 -32.0°
Sets 00:01:00 0° 34° (NE) 3,409 6.3 -31.5°
